Time,TemperatureF,DewpointF,PressureIn,WindDirection,WindDirectionDegrees,WindSpeedMPH,WindSpeedGustMPH,Humidity,HourlyPrecipIn,Conditions,Clouds,dailyrainin,SolarRadiationWatts/m^2,SoftwareType,DateUTC
2013-02-04 00:11:00,17.7,14.0,30.04,West,259,3.0,4.0,85,0.00,,,0.00,0,weatherlink.com 1.10,2013-02-04 05:11:00,
2013-02-04 00:27:00,17.8,14.0,30.04,WSW,258,4.0,4.0,86,0.00,,,0.00,0,weatherlink.com 1.10,2013-02-04 05:27:00,
2013-02-04 00:41:00,18.0,15.0,30.03,WSW,258,3.0,4.0,86,0.00,,,0.00,0,weatherlink.com 1.10,2013-02-04 05:41:00,
2013-02-04 00:56:00,18.3,15.0,30.03,SW,218,4.0,6.0,88,0.00,,,0.00,0,weatherlink.com 1.10,2013-02-04 05:56:00,
2013-02-04 01:11:00,18.6,16.0,30.03,SW,236,3.0,7.0,89,0.00,,,0.00,0,weatherlink.com 1.10,2013-02-04 06:11:00,
2013-02-04 01:27:00,19.0,17.0,30.03,WNW,289,0.0,7.0,90,0.00,,,0.00,0,weatherlink.com 1.10,2013-02-04 06:27:00,
2013-02-04 01:42:00,19.4,17.0,30.03,WNW,287,0.0,6.0,90,0.00,,,0.00,0,weatherlink.com 1.10,2013-02-04 06:42:00,
2013-02-04 01:57:00,19.5,17.0,30.02,WNW,289,3.0,3.0,90,0.00,,,0.00,0,weatherlink.com 1.10,2013-02-04 06:57:00,
2013-02-04 02:12:00,19.4,17.0,30.02,WNW,289,3.0,5.0,90,0.00,,,0.00,0,weatherlink.com 1.10,2013-02-04 07:12:00,
2013-02-04 02:27:00,19.4,17.0,30.02,WNW,288,2.0,4.0,91,0.00,,,0.00,0,weatherlink.com 1.10,2013-02-04 07:27:00,
2013-02-04 02:42:00,19.4,17.0,30.02,WNW,289,2.0,4.0,91,0.00,,,0.00,0,weatherlink.com 1.10,2013-02-04 07:42:00,
2013-02-04 02:57:00,19.4,17.0,30.01,WNW,288,0.0,4.0,91,0.00,,,0.00,0,weatherlink.com 1.10,2013-02-04 07:57:00,
2013-02-04 03:12:00,19.4,17.0,30.01,WNW,283,1.0,5.0,91,0.00,,,0.00,0,weatherlink.com 1.10,2013-02-04 08:12:00,
2013-02-04 03:27:00,19.5,18.0,30.01,WNW,283,1.0,3.0,92,0.00,,,0.00,0,weatherlink.com 1.10,2013-02-04 08:27:00,
2013-02-04 03:42:00,19.5,18.0,29.99,WNW,283,0.0,4.0,92,0.00,,,0.00,0,weatherlink.com 1.10,2013-02-04 08:42:00,
2013-02-04 03:57:00,19.5,18.0,29.98,WNW,283,1.0,3.0,92,0.00,,,0.00,0,weatherlink.com 1.10,2013-02-04 08:57:00,
2013-02-04 04:12:00,19.7,18.0,29.96,WNW,283,1.0,1.0,92,0.00,,,0.00,0,weatherlink.com 1.10,2013-02-04 09:12:00,
2013-02-04 04:27:00,19.7,18.0,29.96,WNW,283,0.0,3.0,92,0.00,,,0.00,0,weatherlink.com 1.10,2013-02-04 09:27:00,
2013-02-04 04:42:00,19.8,18.0,29.96,WNW,283,0.0,4.0,92,0.00,,,0.00,0,weatherlink.com 1.10,2013-02-04 09:42:00,
2013-02-04 04:57:00,20.0,18.0,29.96,WNW,283,2.0,3.0,93,0.00,,,0.00,0,weatherlink.com 1.10,2013-02-04 09:57:00,
2013-02-04 05:12:00,19.9,18.0,29.96,SSE,166,0.0,4.0,92,0.00,,,0.00,0,weatherlink.com 1.10,2013-02-04 10:12:00,
2013-02-04 05:27:00,20.1,18.0,29.94,SE,133,2.0,6.0,93,0.00,,,0.00,0,weatherlink.com 1.10,2013-02-04 10:27:00,
2013-02-04 05:42:00,20.3,19.0,29.94,SSE,162,1.0,4.0,93,0.00,,,0.00,0,weatherlink.com 1.10,2013-02-04 10:42:00,
2013-02-04 05:57:00,20.5,19.0,29.93,SSE,154,2.0,4.0,93,0.00,,,0.00,0,weatherlink.com 1.10,2013-02-04 10:57:00,
2013-02-04 06:12:00,20.4,19.0,29.92,SE,146,1.0,4.0,93,0.00,,,0.00,0,weatherlink.com 1.10,2013-02-04 11:12:00,
2013-02-04 06:27:00,20.6,19.0,29.92,SE,137,2.0,3.0,93,0.00,,,0.00,0,weatherlink.com 1.10,2013-02-04 11:27:00,
2013-02-04 06:42:00,20.7,19.0,29.91,SE,137,3.0,4.0,93,0.00,,,0.00,0,weatherlink.com 1.10,2013-02-04 11:42:00,
2013-02-04 06:57:00,20.7,19.0,29.91,SE,131,3.0,5.0,93,0.00,,,0.00,0,weatherlink.com 1.10,2013-02-04 11:57:00,
2013-02-04 07:12:00,20.8,19.0,29.90,SE,131,6.0,6.0,93,0.00,,,0.00,0,weatherlink.com 1.10,2013-02-04 12:12:00,
2013-02-04 07:27:00,20.9,19.0,29.90,ESE,112,3.0,5.0,93,0.00,,,0.00,0,weatherlink.com 1.10,2013-02-04 12:27:00,
2013-02-04 07:42:00,21.0,19.0,29.90,ESE,111,4.0,4.0,93,0.00,,,0.00,0,weatherlink.com 1.10,2013-02-04 12:42:00,
2013-02-04 07:57:00,21.2,20.0,29.90,East,91,1.0,5.0,93,0.00,,,0.00,0,weatherlink.com 1.10,2013-02-04 12:57:00,
2013-02-04 08:12:00,21.1,19.0,29.90,East,81,3.0,5.0,93,0.00,,,0.00,9,weatherlink.com 1.10,2013-02-04 13:12:00,
2013-02-04 08:27:00,21.3,20.0,29.90,East,85,2.0,6.0,93,0.00,,,0.00,25,weatherlink.com 1.10,2013-02-04 13:27:00,
2013-02-04 08:42:00,21.5,20.0,29.91,ENE,76,3.0,7.0,93,0.00,,,0.00,30,weatherlink.com 1.10,2013-02-04 13:42:00,
2013-02-04 08:57:00,21.7,20.0,29.90,East,82,3.0,8.0,92,0.00,,,0.00,30,weatherlink.com 1.10,2013-02-04 13:57:00,
2013-02-04 09:13:00,21.7,20.0,29.90,East,80,5.0,9.0,92,0.01,,,0.01,49,weatherlink.com 1.10,2013-02-04 14:13:00,
2013-02-04 09:27:00,21.8,20.0,29.89,ENE,71,8.0,9.0,92,0.01,,,0.01,62,weatherlink.com 1.10,2013-02-04 14:27:00,
2013-02-04 09:43:00,22.0,20.0,29.88,East,79,5.0,9.0,91,0.01,,,0.01,72,weatherlink.com 1.10,2013-02-04 14:43:00,
2013-02-04 09:58:00,22.5,20.0,29.87,ESE,104,4.0,13.0,90,0.01,,,0.01,93,weatherlink.com 1.10,2013-02-04 14:58:00,
2013-02-04 10:12:00,22.5,20.0,29.87,East,97,2.0,10.0,89,0.00,,,0.01,93,weatherlink.com 1.10,2013-02-04 15:12:00,
2013-02-04 10:27:00,22.9,20.0,29.87,ENE,67,2.0,8.0,89,0.00,,,0.01,67,weatherlink.com 1.10,2013-02-04 15:27:00,
2013-02-04 10:43:00,22.8,20.0,29.86,East,98,2.0,8.0,90,0.00,,,0.01,86,weatherlink.com 1.10,2013-02-04 15:43:00,
2013-02-04 10:58:00,23.1,21.0,29.86,East,82,5.0,7.0,91,0.00,,,0.01,67,weatherlink.com 1.10,2013-02-04 15:58:00,
2013-02-04 11:13:00,23.3,21.0,29.86,SE,130,1.0,6.0,91,0.00,,,0.01,86,weatherlink.com 1.10,2013-02-04 16:13:00,
2013-02-04 11:28:00,23.5,21.0,29.86,ESE,115,2.0,5.0,91,0.00,,,0.01,79,weatherlink.com 1.10,2013-02-04 16:28:00,
2013-02-04 11:43:00,23.7,21.0,29.86,ESE,106,2.0,7.0,90,0.00,,,0.01,105,weatherlink.com 1.10,2013-02-04 16:43:00,
2013-02-04 11:58:00,24.0,22.0,29.85,ESE,104,4.0,7.0,90,0.00,,,0.01,91,weatherlink.com 1.10,2013-02-04 16:58:00,
2013-02-04 12:13:00,24.2,22.0,29.84,ESE,118,3.0,7.0,89,0.00,,,0.01,118,weatherlink.com 1.10,2013-02-04 17:13:00,
2013-02-04 12:28:00,24.5,22.0,29.84,ESE,114,5.0,7.0,88,0.00,,,0.01,107,weatherlink.com 1.10,2013-02-04 17:28:00,
2013-02-04 12:43:00,24.7,22.0,29.83,East,90,3.0,7.0,88,0.00,,,0.01,100,weatherlink.com 1.10,2013-02-04 17:43:00,
2013-02-04 12:58:00,24.6,22.0,29.82,East,99,2.0,8.0,88,0.00,,,0.01,95,weatherlink.com 1.10,2013-02-04 17:58:00,
2013-02-04 13:13:00,24.8,22.0,29.81,East,84,1.0,6.0,88,0.00,,,0.01,95,weatherlink.com 1.10,2013-02-04 18:13:00,
2013-02-04 13:28:00,24.8,22.0,29.81,ESE,112,3.0,6.0,87,0.00,,,0.01,104,weatherlink.com 1.10,2013-02-04 18:28:00,
2013-02-04 13:43:00,25.1,22.0,29.81,East,89,1.0,7.0,88,0.00,,,0.01,95,weatherlink.com 1.10,2013-02-04 18:43:00,
2013-02-04 13:58:00,25.1,22.0,29.81,ENE,77,4.0,6.0,87,0.00,,,0.01,97,weatherlink.com 1.10,2013-02-04 18:58:00,
2013-02-04 14:13:00,25.4,22.0,29.82,SE,127,4.0,7.0,87,0.00,,,0.01,98,weatherlink.com 1.10,2013-02-04 19:13:00,
2013-02-04 14:28:00,25.5,22.0,29.81,East,89,1.0,6.0,86,0.00,,,0.01,127,weatherlink.com 1.10,2013-02-04 19:28:00,
2013-02-04 14:43:00,25.8,22.0,29.81,East,79,6.0,6.0,86,0.00,,,0.01,125,weatherlink.com 1.10,2013-02-04 19:43:00,
2013-02-04 14:58:00,25.8,23.0,29.81,East,85,2.0,3.0,87,0.00,,,0.01,134,weatherlink.com 1.10,2013-02-04 19:58:00,
2013-02-04 15:13:00,26.0,22.0,29.81,NE,56,1.0,5.0,86,0.00,,,0.01,127,weatherlink.com 1.10,2013-02-04 20:13:00,
2013-02-04 15:28:00,25.8,22.0,29.81,ENE,70,4.0,7.0,86,0.00,,,0.01,137,weatherlink.com 1.10,2013-02-04 20:28:00,
2013-02-04 15:43:00,25.9,22.0,29.82,ENE,77,3.0,4.0,86,0.00,,,0.01,128,weatherlink.com 1.10,2013-02-04 20:43:00,
2013-02-04 15:58:00,26.3,22.0,29.82,ENE,63,0.0,4.0,85,0.00,,,0.01,123,weatherlink.com 1.10,2013-02-04 20:58:00,
2013-02-04 16:13:00,26.2,22.0,29.82,NE,46,3.0,6.0,85,0.00,,,0.01,83,weatherlink.com 1.10,2013-02-04 21:13:00,
2013-02-04 16:28:00,25.7,22.0,29.82,NE,50,2.0,6.0,86,0.00,,,0.01,76,weatherlink.com 1.10,2013-02-04 21:28:00,
2013-02-04 16:43:00,25.8,22.0,29.82,NE,56,1.0,4.0,86,0.00,,,0.01,67,weatherlink.com 1.10,2013-02-04 21:43:00,
2013-02-04 16:58:00,25.6,22.0,29.82,NE,49,1.0,5.0,86,0.00,,,0.01,51,weatherlink.com 1.10,2013-02-04 21:58:00,
2013-02-04 17:13:00,25.4,22.0,29.81,ENE,64,3.0,7.0,86,0.00,,,0.01,49,weatherlink.com 1.10,2013-02-04 22:13:00,
2013-02-04 17:28:00,25.4,22.0,29.80,NE,51,6.0,6.0,86,0.00,,,0.01,32,weatherlink.com 1.10,2013-02-04 22:28:00,
2013-02-04 17:43:00,25.3,22.0,29.81,NE,39,3.0,6.0,86,0.00,,,0.01,18,weatherlink.com 1.10,2013-02-04 22:43:00,
2013-02-04 17:58:00,25.2,22.0,29.82,NE,46,4.0,6.0,87,0.00,,,0.01,7,weatherlink.com 1.10,2013-02-04 22:58:00,
2013-02-04 18:13:00,25.0,22.0,29.82,ENE,65,3.0,6.0,87,0.00,,,0.01,0,weatherlink.com 1.10,2013-02-04 23:13:00,
2013-02-04 18:28:00,24.9,22.0,29.82,NE,42,3.0,6.0,87,0.00,,,0.01,0,weatherlink.com 1.10,2013-02-04 23:28:00,
2013-02-04 18:43:00,24.9,22.0,29.84,NE,54,2.0,5.0,88,0.00,,,0.01,0,weatherlink.com 1.10,2013-02-04 23:43:00,
2013-02-04 18:58:00,24.8,22.0,29.86,NNE,33,2.0,6.0,88,0.00,,,0.01,0,weatherlink.com 1.10,2013-02-04 23:58:00,
2013-02-04 19:13:00,24.7,22.0,29.86,NE,41,2.0,4.0,88,0.00,,,0.01,0,weatherlink.com 1.10,2013-02-05 00:13:00,
2013-02-04 19:28:00,24.5,22.0,29.87,NE,38,1.0,5.0,88,0.00,,,0.01,0,weatherlink.com 1.10,2013-02-05 00:28:00,
2013-02-04 19:43:00,24.7,22.0,29.88,NNE,29,2.0,5.0,89,0.00,,,0.01,0,weatherlink.com 1.10,2013-02-05 00:43:00,
2013-02-04 19:58:00,24.7,22.0,29.88,NNE,27,0.0,4.0,89,0.00,,,0.01,0,weatherlink.com 1.10,2013-02-05 00:58:00,
2013-02-04 20:13:00,24.7,22.0,29.89,NE,38,1.0,4.0,89,0.00,,,0.01,0,weatherlink.com 1.10,2013-02-05 01:13:00,
2013-02-04 20:29:00,24.9,22.0,29.89,NE,38,0.0,3.0,89,0.00,,,0.01,0,weatherlink.com 1.10,2013-02-05 01:29:00,
2013-02-04 20:43:00,24.9,22.0,29.89,NE,38,2.0,4.0,89,0.00,,,0.01,0,weatherlink.com 1.10,2013-02-05 01:43:00,
2013-02-04 20:58:00,24.8,22.0,29.89,NE,39,3.0,4.0,88,0.00,,,0.01,0,weatherlink.com 1.10,2013-02-05 01:58:00,
2013-02-04 21:13:00,24.8,22.0,29.89,NE,39,0.0,2.0,88,0.00,,,0.01,0,weatherlink.com 1.10,2013-02-05 02:13:00,
2013-02-04 21:28:00,24.8,22.0,29.89,NE,39,0.0,3.0,88,0.00,,,0.01,0,weatherlink.com 1.10,2013-02-05 02:28:00,
2013-02-04 21:43:00,24.8,22.0,29.89,NE,39,0.0,2.0,88,0.00,,,0.01,0,weatherlink.com 1.10,2013-02-05 02:43:00,
2013-02-04 21:59:00,24.8,22.0,29.89,NE,39,2.0,4.0,88,0.00,,,0.01,0,weatherlink.com 1.10,2013-02-05 02:59:00,
2013-02-04 22:14:00,24.7,22.0,29.89,NE,37,0.0,2.0,88,0.00,,,0.01,0,weatherlink.com 1.10,2013-02-05 03:14:00,
2013-02-04 22:28:00,24.7,22.0,29.90,NE,37,1.0,3.0,88,0.00,,,0.01,0,weatherlink.com 1.10,2013-02-05 03:28:00,
2013-02-04 22:43:00,24.8,22.0,29.91,NE,37,0.0,2.0,88,0.00,,,0.01,0,weatherlink.com 1.10,2013-02-05 03:43:00,
2013-02-04 22:58:00,24.8,22.0,29.91,NE,37,3.0,3.0,88,0.00,,,0.01,0,weatherlink.com 1.10,2013-02-05 03:58:00,
2013-02-04 23:14:00,24.6,22.0,29.90,NNE,33,4.0,4.0,88,0.00,,,0.01,0,weatherlink.com 1.10,2013-02-05 04:14:00,
2013-02-04 23:29:00,24.5,22.0,29.89,NNE,32,0.0,2.0,89,0.00,,,0.01,0,weatherlink.com 1.10,2013-02-05 04:29:00,
2013-02-04 23:43:00,24.3,22.0,29.89,NNE,32,0.0,1.0,89,0.00,,,0.01,0,weatherlink.com 1.10,2013-02-05 04:43:00,
2013-02-04 23:59:00,24.2,22.0,29.89,NNE,32,0.0,1.0,89,0.00,,,0.01,0,weatherlink.com 1.10,2013-02-05 04:59:00,